sat.trackr.live / text

‹ back to catalog

STARLINK-37426

NORAD 68813 · 2026-089M

PAYLOAD ACTIVE UNKNOWN

§ Identity

Operator
Country
US
Launch date
2026-04-23
Launch site
AFWTR
Launch vehicle
Mass (kg)
RCS (m²)

Purposes: comms

External: N2YO · Heavens-Above · Gunter

§ Orbital elements

Epoch: 2026-05-25T02:41:39.124896Z

Period
91.41 min
Inclination
97.2839°
Eccentricity
0.0001504
Mean motion
15.75245184 rev/d
Perigee alt
342.9 km
Apogee alt
344.9 km
Semi-major
6,722.1 km
B*
1.1885e-3
RAAN
351.7648°
Arg perigee
83.3303°
Mean anomaly
276.8133°
Rev number
506

§ Raw data

STARLINK-374261 68813U 26089M   26145.11225839  .00181392  00000+0  11885-2 0  99982 68813  97.2839 351.7648 0001504  83.3303 276.8133 15.75245184  5063

JSON: /api/v1/satellites/68813 · /tle

For live sub-satellite position, see the globe view (requires WebGL).

§ Visibility from observer

Set your observer location to see the next 7 days of passes ≥ 10°. The values pass through the URL so the page stays shareable.

No JS? Fill the form by hand. The geolocation button needs JavaScript.